When you browse on this site, cookies collect data to enhance your experience and personalize the content and advertising you see.
Visit our Privacy Policy to learn more. By continuing to use the site, you agree to this use of cookies and data.
  • In Lithuania
  • List of Countries
  • For 7 days
  • Water Temperature
  • Satellite Maps
  • Weather Map
  • Weather Widgets
  • user-avatar
    Login

    Hourly Weather Graz

    Today, 21 May, Tuesday

    Time Temperature Precipitation Wind Pressure Humidity
    00:00 +10°C° 0 mm 1 mps 715 mmHg 92%
    01:00 +10°C° 0 mm 1 mps 715 mmHg 93%
    02:00 +10°C° 0.2 mm 1 mps 715 mmHg 93%
    03:00 +10°C° 0.2 mm 1 mps 715 mmHg 93%
    04:00 +10°C° 0.2 mm 1 mps 716 mmHg 92%
    05:00 +11°C° 0.3 mm 1 mps 716 mmHg 90%
    06:00 +12°C° 0.3 mm 1 mps 716 mmHg 87%
    07:00 +13°C° 0.3 mm 1 mps 716 mmHg 84%
    08:00 +14°C° 0.5 mm 1 mps 717 mmHg 84%
    09:00 +14°C° 0.5 mm 1 mps 717 mmHg 83%
    10:00 +14°C° 0.5 mm 1 mps 717 mmHg 83%
    11:00 +16°C° 0.3 mm 1 mps 718 mmHg 78%
    12:00 +18°C° 0.3 mm 1 mps 718 mmHg 73%
    13:00 +19°C° 0.3 mm 1 mps 718 mmHg 68%
    14:00 +19°C° 0.4 mm 1 mps 719 mmHg 68%
    15:00 +19°C° 0.4 mm 1 mps 719 mmHg 68%
    16:00 +18°C° 0.4 mm 2 mps 719 mmHg 68%
    17:00 +18°C° 0.2 mm 1 mps 719 mmHg 72%
    18:00 +16°C° 0.2 mm 1 mps 719 mmHg 77%
    19:00 +15°C° 0.2 mm 1 mps 719 mmHg 81%
    20:00 +15°C° 0 mm 1 mps 719 mmHg 83%
    21:00 +14°C° 0 mm 1 mps 720 mmHg 86%
    22:00 +13°C° 0 mm 1 mps 720 mmHg 88%
    23:00 +13°C° 0 mm 1 mps 720 mmHg 88%

    Tomorrow, 22 May, Wednesday

    Time Temperature Precipitation Wind Pressure Humidity
    00:00 +13°C° 0 mm 1 mps 720 mmHg 88%
    01:00 +12°C° 0 mm 1 mps 720 mmHg 88%
    02:00 +12°C° 0 mm 1 mps 720 mmHg 87%
    03:00 +12°C° 0 mm 2 mps 720 mmHg 87%
    04:00 +10°C° 0 mm 2 mps 720 mmHg 87%
    05:00 +13°C° 0 mm 2 mps 720 mmHg 82%
    06:00 +14°C° 0 mm 2 mps 721 mmHg 77%
    07:00 +15°C° 0 mm 2 mps 721 mmHg 73%
    08:00 +16°C° 0.1 mm 2 mps 721 mmHg 68%
    09:00 +17°C° 0.1 mm 2 mps 722 mmHg 63%
    10:00 +19°C° 0.1 mm 2 mps 722 mmHg 58%
    11:00 +19°C° 0.1 mm 2 mps 722 mmHg 55%
    12:00 +20°C° 0.1 mm 2 mps 722 mmHg 53%
    13:00 +22°C° 0.1 mm 1 mps 722 mmHg 51%
    14:00 +22°C° 0.3 mm 1 mps 722 mmHg 54%
    15:00 +21°C° 0.3 mm 1 mps 722 mmHg 56%
    16:00 +21°C° 0.3 mm 1 mps 722 mmHg 59%
    17:00 +20°C° 0.2 mm 1 mps 723 mmHg 64%
    18:00 +18°C° 0.2 mm 1 mps 723 mmHg 70%
    19:00 +15°C° 0.2 mm 0 mps 723 mmHg 76%
    20:00 +15°C° 0 mm 1 mps 723 mmHg 78%
    21:00 +14°C° 0 mm 1 mps 724 mmHg 81%
    22:00 +13°C° 0 mm 1 mps 724 mmHg 83%
    23:00 +13°C° 0 mm 1 mps 724 mmHg 85%

    Day after tomorrow, 23 May, Thursday

    Time Temperature Precipitation Wind Pressure Humidity
    00:00 +12°C° 0 mm 1 mps 724 mmHg 86%
    01:00 +12°C° 0 mm 2 mps 724 mmHg 87%
    02:00 +10°C° 0 mm 2 mps 724 mmHg 87%
    03:00 +10°C° 0 mm 2 mps 724 mmHg 88%
    04:00 +11°C° 0 mm 1 mps 724 mmHg 88%
    05:00 +12°C° 0 mm 1 mps 724 mmHg 83%
    06:00 +14°C° 0 mm 1 mps 725 mmHg 79%
    07:00 +15°C° 0 mm 1 mps 725 mmHg 75%
    08:00 +18°C° 0.1 mm 1 mps 725 mmHg 69%
    09:00 +19°C° 0.1 mm 1 mps 725 mmHg 63%
    10:00 +20°C° 0.1 mm 1 mps 725 mmHg 57%
    11:00 +20°C° 0.2 mm 2 mps 725 mmHg 53%
    12:00 +21°C° 0.2 mm 2 mps 725 mmHg 50%
    13:00 +23°C° 0.2 mm 2 mps 725 mmHg 47%
    14:00 +21°C° 0.1 mm 2 mps 725 mmHg 48%
    15:00 +21°C° 0.1 mm 2 mps 724 mmHg 49%
    16:00 +22°C° 0.1 mm 1 mps 724 mmHg 50%
    17:00 +20°C° 0.1 mm 1 mps 724 mmHg 59%
    18:00 +19°C° 0.1 mm 1 mps 724 mmHg 68%
    19:00 +16°C° 0.1 mm 1 mps 724 mmHg 76%
    20:00 +15°C° 0 mm 1 mps 724 mmHg 80%
    21:00 +13°C° 0 mm 1 mps 725 mmHg 84%
    22:00 +12°C° 0 mm 1 mps 725 mmHg 88%
    23:00 +12°C° 0 mm 1 mps 725 mmHg 88%

    24 May, Friday

    Time Temperature Precipitation Wind Pressure Humidity
    00:00 +11°C° 0 mm 1 mps 725 mmHg 89%
    01:00 +11°C° 0 mm 1 mps 725 mmHg 89%
    02:00 +11°C° 0 mm 1 mps 724 mmHg 89%
    03:00 +10°C° 0 mm 1 mps 724 mmHg 89%
    04:00 +10°C° 0 mm 1 mps 724 mmHg 89%
    05:00 +12°C° 0 mm 1 mps 724 mmHg 83%
    06:00 +13°C° 0 mm 1 mps 724 mmHg 76%
    07:00 +15°C° 0 mm 1 mps 724 mmHg 70%
    08:00 +17°C° 0 mm 0 mps 724 mmHg 61%
    09:00 +19°C° 0 mm 0 mps 724 mmHg 53%
    10:00 +22°C° 0 mm 0 mps 724 mmHg 45%
    11:00 +22°C° 0 mm 0 mps 724 mmHg 45%
    12:00 +23°C° 0 mm 1 mps 724 mmHg 46%
    13:00 +23°C° 0 mm 1 mps 723 mmHg 47%
    14:00 +22°C° 0 mm 1 mps 723 mmHg 48%
    15:00 +22°C° 0 mm 1 mps 723 mmHg 50%
    16:00 +22°C° 0 mm 1 mps 722 mmHg 52%
    17:00 +21°C° 0.1 mm 1 mps 722 mmHg 59%
    18:00 +19°C° 0.1 mm 1 mps 722 mmHg 67%
    19:00 +18°C° 0.1 mm 1 mps 722 mmHg 75%
    20:00 +16°C° 0.1 mm 1 mps 722 mmHg 80%
    21:00 +14°C° 0.1 mm 0 mps 723 mmHg 85%
    22:00 +12°C° 0.1 mm 0 mps 723 mmHg 89%
    23:00 +12°C° 0 mm 0 mps 723 mmHg 90%

    25 May, Saturday

    Time Temperature Precipitation Wind Pressure Humidity
    00:00 +13°C° 0 mm 1 mps 723 mmHg 91%
    01:00 +12°C° 0 mm 1 mps 723 mmHg 91%
    02:00 +12°C° 0 mm 1 mps 723 mmHg 91%
    03:00 +12°C° 0 mm 1 mps 723 mmHg 92%
    04:00 +11°C° 0 mm 1 mps 723 mmHg 92%
    05:00 +13°C° 0 mm 1 mps 723 mmHg 85%
    06:00 +15°C° 0 mm 1 mps 723 mmHg 78%
    07:00 +18°C° 0 mm 1 mps 723 mmHg 72%
    08:00 +20°C° 0 mm 1 mps 723 mmHg 63%
    09:00 +22°C° 0 mm 1 mps 724 mmHg 55%
    10:00 +25°C° 0 mm 1 mps 724 mmHg 47%
    11:00 +24°C° 0.4 mm 1 mps 724 mmHg 49%
    12:00 +24°C° 0.4 mm 2 mps 723 mmHg 51%
    13:00 +24°C° 0.4 mm 2 mps 723 mmHg 54%
    14:00 +23°C° 0.8 mm 2 mps 723 mmHg 58%
    15:00 +23°C° 0.8 mm 2 mps 722 mmHg 62%
    16:00 +21°C° 0.8 mm 2 mps 722 mmHg 67%
    17:00 +21°C° 0.9 mm 1 mps 722 mmHg 73%
    18:00 +20°C° 0.9 mm 1 mps 722 mmHg 79%
    19:00 +17°C° 0.9 mm 0 mps 722 mmHg 85%
    20:00 +18°C° 0.4 mm 1 mps 722 mmHg 87%
    21:00 +16°C° 0.4 mm 1 mps 723 mmHg 89%
    22:00 +15°C° 0.4 mm 2 mps 723 mmHg 91%
    23:00 +15°C° 0.2 mm 1 mps 723 mmHg 91%

    26 May, Sunday

    Time Temperature Precipitation Wind Pressure Humidity
    00:00 +14°C° 0.2 mm 1 mps 723 mmHg 91%
    01:00 +14°C° 0.2 mm 1 mps 723 mmHg 91%
    02:00 +14°C° 0 mm 1 mps 723 mmHg 91%
    03:00 +13°C° 0 mm 1 mps 722 mmHg 91%
    04:00 +13°C° 0 mm 1 mps 722 mmHg 92%
    05:00 +14°C° 0 mm 1 mps 723 mmHg 89%
    06:00 +15°C° 0 mm 1 mps 723 mmHg 86%
    07:00 +16°C° 0 mm 1 mps 723 mmHg 83%
    08:00 +19°C° 0.2 mm 1 mps 723 mmHg 77%
    09:00 +20°C° 0.2 mm 1 mps 723 mmHg 72%
    10:00 +21°C° 0.2 mm 1 mps 723 mmHg 67%
    11:00 +22°C° 0.6 mm 1 mps 723 mmHg 65%
    12:00 +23°C° 0.6 mm 1 mps 723 mmHg 63%
    13:00 +24°C° 0.6 mm 1 mps 723 mmHg 61%
    14:00 +22°C° 1.3 mm 0 mps 723 mmHg 64%
    15:00 +21°C° 1.3 mm 0 mps 723 mmHg 67%
    16:00 +21°C° 1.3 mm 0 mps 723 mmHg 71%
    17:00 +19°C° 1.1 mm 0 mps 723 mmHg 76%
    18:00 +18°C° 1.1 mm 0 mps 723 mmHg 81%
    19:00 +17°C° 1.1 mm 0 mps 723 mmHg 85%
    20:00 +16°C° 0.1 mm 0 mps 723 mmHg 87%
    21:00 +16°C° 0.1 mm 1 mps 723 mmHg 88%
    22:00 +15°C° 0.1 mm 1 mps 724 mmHg 89%
    23:00 +14°C° 0 mm 1 mps 724 mmHg 90%
    Show more